TimeCST,TemperatureF,Dew PointF,Humidity,Sea Level PressureIn,VisibilityMPH,Wind Direction,Wind SpeedMPH,Gust SpeedMPH,PrecipitationIn,Events,Conditions,WindDirDegrees,DateUTC
12:15 AM,12.2,5.0,73,30.34,10.0,ENE,4.6,-,N/A,,Clear,70,2013-02-21 06:15:00
12:35 AM,12.2,5.0,73,30.34,10.0,ENE,6.9,-,N/A,,Partly Cloudy,70,2013-02-21 06:35:00
12:55 AM,12.2,5.0,73,30.34,10.0,East,8.1,-,N/A,,Clear,80,2013-02-21 06:55:00
1:15 AM,12.2,5.0,73,30.34,10.0,ENE,8.1,-,N/A,,Clear,70,2013-02-21 07:15:00
1:35 AM,12.2,5.0,73,30.35,10.0,ENE,6.9,-,N/A,,Scattered Clouds,70,2013-02-21 07:35:00
1:55 AM,10.4,5.0,79,30.35,10.0,East,6.9,-,N/A,,Mostly Cloudy,80,2013-02-21 07:55:00
2:15 AM,12.2,5.0,73,30.35,10.0,East,5.8,-,N/A,,Partly Cloudy,80,2013-02-21 08:15:00
2:35 AM,12.2,5.0,73,30.36,10.0,ENE,5.8,-,N/A,,Clear,60,2013-02-21 08:35:00
2:55 AM,10.4,5.0,79,30.35,10.0,ENE,6.9,-,N/A,,Clear,60,2013-02-21 08:55:00
3:15 AM,10.4,3.2,73,30.35,10.0,ENE,8.1,-,N/A,,Clear,60,2013-02-21 09:15:00
3:35 AM,10.4,3.2,73,30.33,10.0,ENE,9.2,-,N/A,,Scattered Clouds,60,2013-02-21 09:35:00
3:55 AM,10.4,3.2,73,30.33,10.0,NE,8.1,-,N/A,,Partly Cloudy,50,2013-02-21 09:55:00
4:15 AM,10.4,3.2,73,30.30,10.0,ENE,10.4,-,N/A,,Clear,60,2013-02-21 10:15:00
4:35 AM,10.4,3.2,73,30.30,10.0,ENE,9.2,-,N/A,,Clear,60,2013-02-21 10:35:00
4:55 AM,10.4,3.2,73,30.24,10.0,NE,13.8,-,N/A,,Clear,50,2013-02-21 10:55:00
5:15 AM,12.2,5.0,73,30.29,10.0,East,8.1,19.6,N/A,,Clear,100,2013-02-21 11:15:00
5:55 AM,10.4,3.2,73,30.34,10.0,East,8.1,-,N/A,,Clear,100,2013-02-21 11:55:00
6:15 AM,10.4,5.0,79,30.33,10.0,ENE,6.9,-,N/A,,Clear,60,2013-02-21 12:15:00
6:35 AM,10.4,5.0,79,30.31,10.0,NE,8.1,-,N/A,,Clear,50,2013-02-21 12:35:00
6:55 AM,12.2,5.0,73,30.32,10.0,ENE,10.4,-,N/A,,Clear,70,2013-02-21 12:55:00
7:15 AM,12.2,5.0,73,30.32,10.0,ENE,9.2,-,N/A,,Clear,70,2013-02-21 13:15:00
7:35 AM,12.2,5.0,73,30.29,10.0,ENE,11.5,-,N/A,,Clear,60,2013-02-21 13:35:00
7:55 AM,12.2,5.0,73,30.29,10.0,East,13.8,-,N/A,,Clear,80,2013-02-21 13:55:00
8:15 AM,14.0,5.0,67,30.31,10.0,East,12.7,-,N/A,,Clear,80,2013-02-21 14:15:00
8:35 AM,14.0,6.8,73,30.32,10.0,East,13.8,-,N/A,,Clear,90,2013-02-21 14:35:00
8:55 AM,14.0,6.8,73,30.31,10.0,East,12.7,-,N/A,,Clear,80,2013-02-21 14:55:00
9:15 AM,15.8,6.8,68,30.28,10.0,East,12.7,19.6,N/A,,Scattered Clouds,80,2013-02-21 15:15:00
9:35 AM,15.8,8.6,73,30.29,10.0,East,13.8,-,N/A,,Partly Cloudy,90,2013-02-21 15:35:00
9:55 AM,17.6,8.6,68,30.29,10.0,East,15.0,21.9,N/A,,Clear,100,2013-02-21 15:55:00
10:15 AM,17.6,8.6,68,30.30,10.0,East,11.5,-,N/A,,Clear,100,2013-02-21 16:15:00
10:35 AM,17.6,8.6,68,30.32,10.0,East,10.4,17.3,N/A,,Clear,100,2013-02-21 16:35:00
10:55 AM,19.4,10.4,68,30.30,10.0,East,11.5,-,N/A,,Clear,80,2013-02-21 16:55:00
11:15 AM,19.4,10.4,68,30.27,10.0,ENE,12.7,-,N/A,,Clear,70,2013-02-21 17:15:00
11:35 AM,19.4,10.4,68,30.27,10.0,East,12.7,-,N/A,,Clear,80,2013-02-21 17:35:00
11:55 AM,21.2,12.2,68,30.26,10.0,East,11.5,17.3,N/A,,Clear,90,2013-02-21 17:55:00
12:15 PM,21.2,12.2,68,30.24,10.0,East,13.8,-,N/A,,Clear,90,2013-02-21 18:15:00
12:35 PM,21.2,12.2,68,30.22,10.0,East,16.1,-,N/A,,Clear,90,2013-02-21 18:35:00
12:55 PM,21.2,12.2,68,30.20,10.0,East,11.5,20.7,N/A,,Clear,100,2013-02-21 18:55:00
1:15 PM,23.0,12.2,63,30.19,10.0,East,16.1,-,N/A,,Clear,100,2013-02-21 19:15:00
1:35 PM,23.0,14.0,68,30.18,10.0,ENE,16.1,-,N/A,,Clear,70,2013-02-21 19:35:00
1:55 PM,21.2,12.2,68,30.18,10.0,ENE,15.0,20.7,N/A,,Clear,70,2013-02-21 19:55:00
2:15 PM,23.0,12.2,63,30.16,10.0,ENE,18.4,-,N/A,,Clear,70,2013-02-21 20:15:00
2:35 PM,21.2,12.2,68,30.15,10.0,ENE,18.4,-,N/A,,Clear,60,2013-02-21 20:35:00
2:55 PM,21.2,12.2,68,30.13,10.0,ENE,23.0,-,N/A,,Clear,70,2013-02-21 20:55:00
3:15 PM,21.2,12.2,68,30.13,10.0,East,19.6,-,N/A,,Clear,80,2013-02-21 21:15:00
3:35 PM,21.2,12.2,68,30.12,10.0,East,18.4,24.2,N/A,,Clear,80,2013-02-21 21:35:00
3:55 PM,21.2,12.2,68,30.12,10.0,East,21.9,28.8,N/A,,Clear,90,2013-02-21 21:55:00
4:15 PM,21.2,12.2,68,30.11,10.0,East,20.7,-,N/A,,Clear,80,2013-02-21 22:15:00
4:35 PM,21.2,12.2,68,30.11,10.0,East,20.7,-,N/A,,Partly Cloudy,80,2013-02-21 22:35:00
4:55 PM,21.2,12.2,68,30.10,10.0,East,21.9,-,N/A,,Scattered Clouds,80,2013-02-21 22:55:00
5:15 PM,21.2,12.2,68,30.10,10.0,East,20.7,-,N/A,,Mostly Cloudy,80,2013-02-21 23:15:00
5:35 PM,21.2,12.2,68,30.09,10.0,East,17.3,24.2,N/A,,Overcast,80,2013-02-21 23:35:00
5:55 PM,21.2,12.2,68,30.08,10.0,ENE,16.1,24.2,N/A,,Overcast,70,2013-02-21 23:55:00
6:15 PM,21.2,12.2,68,30.08,10.0,ENE,15.0,25.3,N/A,,Overcast,70,2013-02-22 00:15:00
6:35 PM,21.2,14.0,74,30.08,10.0,East,13.8,-,N/A,,Overcast,80,2013-02-22 00:35:00
6:55 PM,21.2,14.0,74,30.08,10.0,East,15.0,21.9,N/A,,Overcast,80,2013-02-22 00:55:00
7:15 PM,21.2,14.0,74,30.07,10.0,ENE,12.7,19.6,N/A,,Overcast,70,2013-02-22 01:15:00
7:35 PM,21.2,15.8,80,30.04,10.0,NE,17.3,26.5,N/A,,Overcast,50,2013-02-22 01:35:00
7:55 PM,21.2,15.8,80,30.03,10.0,ENE,18.4,24.2,N/A,Rain,Freezing Rain,60,2013-02-22 01:55:00
8:15 PM,21.2,17.6,86,30.02,5.0,ENE,16.1,25.3,N/A,Snow,Light Snow,60,2013-02-22 02:15:00
8:35 PM,21.2,17.6,86,30.00,8.0,ENE,19.6,27.6,N/A,Snow,Light Snow,60,2013-02-22 02:35:00
8:55 PM,21.2,17.6,86,30.00,7.0,ENE,18.4,-,N/A,Rain,Freezing Rain,60,2013-02-22 02:55:00
9:15 PM,21.2,17.6,86,30.00,4.0,ENE,15.0,21.9,N/A,Snow,Light Snow,70,2013-02-22 03:15:00
9:35 PM,21.2,17.6,86,29.99,1.8,ENE,17.3,23.0,N/A,Snow,Light Snow,60,2013-02-22 03:35:00
9:55 PM,21.2,17.6,86,29.97,0.5,NE,20.7,-,N/A,Snow,Light Snow,50,2013-02-22 03:55:00
10:15 PM,21.2,17.6,86,29.95,0.8,NE,19.6,-,N/A,Snow,Light Snow,50,2013-02-22 04:15:00
10:35 PM,21.2,17.6,86,29.93,1.0,NE,18.4,24.2,N/A,Snow,Light Snow,50,2013-02-22 04:35:00
10:55 PM,21.2,17.6,86,29.94,0.5,NE,17.3,23.0,0.01,Snow,Light Snow,50,2013-02-22 04:55:00
11:15 PM,21.2,19.4,93,29.94,0.5,ENE,13.8,-,N/A,Snow,Light Snow,60,2013-02-22 05:15:00
11:35 PM,21.2,19.4,93,29.93,0.8,ENE,13.8,-,N/A,Snow,Light Snow,60,2013-02-22 05:35:00
11:55 PM,21.2,19.4,93,29.92,0.8,NE,15.0,-,N/A,Snow,Light Snow,50,2013-02-22 05:55:00